Location: Bou Irhar Da�ane
(32.8559°N, 5.6654°W)
Time: 01:00:09
(UTC+00:00)

Daily predictions for brighter satellites

Satellite Brightness Start Highest point End
(mag) Time Altitude Azimuth Time Altitude Azimuth Time Altitude Azimuth
Lacrosse 5 4.2 00:01:57 10° NW 00:03:11 17° NW 00:03:11 17° NW
COSMOS 2455 4.4 00:11:39 26° NE 00:11:39 26° NE 00:14:26 10° NE
USA 215 4.0 00:33:07 44° NW 00:33:07 44° NW 00:37:25 10° NW
FALCON 9 R/B 3.5 00:38:26 51° ENE 00:38:26 51° ENE 00:49:18 10° E
ATLAS CENTAUR R/B 4.1 00:56:56 17° NNE 00:56:56 17° NNE 00:57:59 10° NNE
NOSS 3-2 (C) 4.2 00:46:03 10° NNW 00:53:57 70° ENE 00:54:30 69° E
NOSS 3-4 (A) 4.3 00:57:31 41° NNW 00:57:31 41° NNW 01:02:16 10° NNE
NOSS 3-4 (C) 4.3 00:57:37 42° NNW 00:57:37 42° NNW 01:02:23 10° NNE
SL-16 R/B 4.5 00:56:02 17° E 00:57:59 19° ENE 01:02:09 10° NNE
ATLAS 3B R/B 4.0 01:03:15 10° NNW 01:09:27 35° NE 01:12:43 24° E
CENTAUR R/B 3.2 01:05:28 10° NNW 01:13:55 80° ENE 01:14:46 73° ESE
ATLAS 2AS CENTAUR R/B 4.0 01:23:17 33° WNW 01:24:54 36° NW 01:32:09 10° NNE
Exosat Rocket 4.5 01:16:27 10° NNW 01:24:29 68° NW 01:24:29 68° NW
CZ-2D R/B 3.4 01:26:41 10° NNE 01:30:15 35° ENE 01:30:15 35° ENE
ADEOS II 4.3 01:31:08 10° ENE 01:34:07 15° E 01:34:07 15° E
Resurs 1-4 Rocket 3.0 01:36:15 10° NNE 01:40:11 45° NE 01:40:11 45° NE
NPP 4.4 01:43:37 10° NNE 01:47:57 49° ENE 01:47:57 49° ENE
CZ-4C R/B 3.7 01:50:43 23° E 01:50:43 23° E 01:53:42 10° NE
COSMOS 2455 4.4 01:54:47 25° NW 01:54:50 25° NW 01:59:40 10° N
SJ 16-02 4.0 01:54:47 10° NNE 01:57:28 16° ENE 01:59:16 13° E
Cosmos 1709 Rocket 4.2 02:01:48 59° E 02:01:59 59° E 02:07:58 10° NNE
Cosmos 1980 Rocket 4.0 02:13:41 18° ESE 02:14:56 20° E 02:18:50 10° NE
Cosmos 2219 4.1 02:14:11 10° N 02:19:36 45° ENE 02:22:14 27° ESE
Nadezhda 1 Rocket 4.1 02:24:43 10° NNW 02:30:28 56° W 02:30:28 56° W
Cosmos 1812 Rocket 4.4 02:28:27 10° N 02:31:37 45° NNW 02:31:37 45° NNW
AQUA 4.2 02:28:16 10° N 02:32:11 54° NNW 02:32:11 54° NNW
Cosmos 540 Rocket 4.5 02:32:22 34° ESE 02:33:07 36° E 02:37:48 10° NE
Cosmos 2297 Rocket 3.0 02:29:41 10° N 02:35:09 49° ENE 02:39:14 17° SE
CZ-4B R/B 3.8 02:30:29 10° N 02:35:12 56° NW 02:35:12 56° NW
Cosmos 1825 Rocket 4.0 02:38:21 59° NNE 02:38:21 59° NNE 02:41:54 10° N
SL-16 R/B 2.6 02:41:06 56° W 02:41:06 56° W 02:47:06 10° NNW
CBERS-1 3.9 02:37:19 10° N 02:42:26 78° WNW 02:42:28 78° W
Cosmos 841 Rocket 3.9 02:44:27 49° SE 02:45:19 55° ESE 02:50:26 10° NNE
Cosmos 1455 3.3 02:41:49 10° N 02:44:16 39° N 02:44:16 39° N
ATLAS CENTAUR R/B 4.1 02:44:17 10° NNW 02:47:57 38° ENE 02:56:22 10° ESE
USA 234 3.8 02:42:55 10° NE 02:49:07 45° SE 02:51:06 36° SSE
Timation 2 Rocket 4.4 02:44:22 10° NW 02:49:24 42° W 02:49:24 42° W
GP-B 3.3 02:49:46 10° N 02:53:37 58° NW 02:53:37 58° NW
Cosmos 2184 Rocket 4.4 02:51:54 31° SSE 02:54:49 58° E 03:00:51 10° NNE
IRS-1D 3.6 02:50:08 10° N 02:55:21 58° WNW 02:55:45 57° W
SL-08 R/B 4.1 02:54:12 24° SE 02:56:48 49° ENE 03:01:18 10° N
Cosmos-2242 3.0 02:52:57 10° N 02:57:12 76° E 02:57:20 75° ESE
ATLAS 3B R/B 3.1 02:53:45 10° NW 02:59:50 41° WSW 02:59:50 41° WSW
Cosmos 1703 4.1 03:02:09 40° NW 03:02:09 40° NW 03:05:05 10° N
Cosmos 1763 Rocket 3.8 03:03:46 46° W 03:04:06 46° WNW 03:09:00 10° N
Alouette 2 Rocket 3.5 02:59:25 10° NNW 03:04:46 69° W 03:04:50 69° WSW
Cosmos 1697 Rocket 2.7 03:04:56 53° WSW 03:06:05 66° WNW 03:11:44 10° NNE
Cosmos 2227 Rocket 2.1 03:05:05 10° NNW 03:10:47 87° ENE 03:15:35 15° SSE
IRS-P3 4.2 03:05:44 10° N 03:10:58 60° WNW 03:12:05 49° WSW
CZ-2D R/B 3.7 03:07:43 10° NNW 03:11:19 19° WNW 03:11:34 19° WNW
Cosmos 2181 Rocket 4.0 03:05:48 10° N 03:12:13 73° W 03:15:15 33° S
STARLINK-1228 3.6 03:09:12 10° NW 03:12:30 58° NE 03:15:48 10° SE
ADEOS II 2.4 03:08:59 10° N 03:14:04 50° WNW 03:15:04 44° WSW
STARLINK-1105 4.5 03:11:47 10° NNW 03:14:40 35° NE 03:17:32 10° ESE
STARLINK-1247 4.4 03:12:41 10° NNW 03:15:37 36° NE 03:18:31 10° ESE
STARLINK-1227 4.4 03:13:09 10° NNW 03:16:03 36° NE 03:18:56 10° ESE
STARLINK-1226 4.4 03:13:59 10° NNW 03:16:55 37° NE 03:19:51 10° ESE
H-2A R/B 3.4 03:13:47 10° SE 03:17:44 39° ENE 03:21:47 10° N
STARLINK-1215 4.3 03:14:55 10° NNW 03:17:52 38° NE 03:20:49 10° ESE
STARLINK-1217 4.2 03:16:41 10° NNW 03:19:38 40° NE 03:22:36 10° ESE
STARLINK-1229 4.1 03:17:35 10° NNW 03:20:34 41° NE 03:23:32 10° ESE
CZ-2C R/B 3.8 03:17:08 10° NNE 03:20:38 39° E 03:22:06 27° SSE
Resurs 1-4 Rocket 3.9 03:17:46 10° NNW 03:20:45 15° WNW 03:21:16 15° WNW
STARLINK-1270 4.1 03:18:26 10° NNW 03:21:26 42° NE 03:24:25 10° ESE
STARLINK-1189 4.0 03:20:16 10° NNW 03:23:16 45° NE 03:26:16 10° ESE
STARLINK-1188 3.9 03:21:08 10° NNW 03:24:10 46° NE 03:27:10 10° ESE
STARLINK-1235 3.1 03:23:57 42° NNW 03:24:49 68° NE 03:27:54 10° SE
STARLINK-1187 3.4 03:22:11 10° NW 03:25:14 57° NE 03:28:17 10° SE
ARIANE 5 R/B 2.5 03:20:37 10° N 03:25:37 65° WNW 03:27:15 41° SW
STARLINK-1191 3.8 03:23:35 10° NNW 03:26:37 49° NE 03:29:37 10° ESE
Cosmos 2154 Rocket 4.3 03:21:54 17° S 03:26:45 68° E 03:32:59 10° NNE
Skynet4D Del rocket 4.3 03:26:07 32° S 03:27:05 34° SSE 03:31:56 10° ESE
STARLINK-1221 3.7 03:24:27 10° NNW 03:27:29 50° NE 03:30:30 10° ESE
STARLINK-1222 3.6 03:25:21 10° NW 03:28:23 52° NE 03:31:24 10° ESE
STARLINK-1214 3.6 03:26:15 10° NW 03:29:17 53° NE 03:32:19 10° ESE
Spot 4 Rocket 3.9 03:26:24 10° N 03:31:33 81° WNW 03:34:02 31° SSW
Lacrosse 4 Rocket 3.5 03:28:06 10° N 03:31:51 29° ENE 03:35:31 10° ESE
Cosmos 1953 Rocket 4.4 03:31:48 33° W 03:32:08 33° W 03:36:11 10° NNW
Chunghua 1 4.4 03:32:54 60° WSW 03:33:20 67° SSW 03:37:01 10° ESE
Meteor 1-27 4.5 03:28:23 10° N 03:33:55 67° E 03:39:26 10° SSE
Cosmos 1898 Rocket 3.6 03:29:00 10° NNW 03:34:12 56° WSW 03:37:14 24° S
STARLINK 1040 2.9 03:35:58 57° NNE 03:35:58 57° NNE 03:38:07 10° NE
SJ 16-02 1.9 03:32:05 10° NW 03:36:08 36° W 03:36:11 36° WSW
CZ-4C R/B 3.1 03:35:54 24° W 03:37:42 31° NW 03:42:36 10° NNE
Cosmos 2208 Rocket 4.4 03:36:15 33° WSW 03:38:00 45° WNW 03:43:03 10° N
STARLINK-26 4.0 03:37:51 33° SSE 03:38:37 39° SE 03:41:51 10° ENE
IDEFIX/ARIANE 42P 2.6 03:34:18 10° NNE 03:39:35 82° ESE 03:43:16 20° S
Meteor 2-17 Rocket 4.4 03:35:32 22° S 03:39:39 82° W 03:45:50 10° N
OAO 1 4.4 03:37:45 14° WNW 03:42:29 85° SSW 03:47:59 10° ESE
Cosmos 1937 Rocket 3.4 03:39:10 10° NNW 03:44:21 65° WSW 03:49:35 10° S
Cosmos 2285 Rocket 3.9 03:38:14 10° NNW 03:44:36 76° WSW 03:50:52 10° S
Cosmos 1842 Rocket 3.9 03:42:43 10° N 03:47:12 68° E 03:51:37 10° SSE
IRIDIUM 104 4.3 03:44:05 16° S 03:48:21 89° W 03:53:36 10° N
STARLINK-1283 4.5 03:47:35 23° S 03:49:12 35° SE 03:52:34 10° ENE
Iridium 2 3.5 03:46:09 10° N 03:49:54 72° W 03:52:04 24° S
CZ-4B R/B 4.3 03:49:34 10° ESE 03:51:29 16° ENE 03:53:25 10° NNE
STARLINK-42 3.7 03:51:29 30° S 03:52:36 43° SE 03:55:40 10° ENE
STARLINK-43 3.9 03:53:30 29° W 03:54:56 45° NW 03:58:29 10° NNE
ERS-2 2.4 03:53:43 30° SSW 03:55:02 43° W 03:58:32 10° NNW
IRIDIUM 114 4.3 03:53:13 15° S 03:57:30 72° W 04:02:43 10° N
Cosmos 1980 Rocket 2.7 03:55:27 23° SW 03:58:30 44° WNW 04:03:52 10° N
Cosmos 2219 4.5 03:59:26 10° NW 04:03:18 19° W 04:04:03 19° WSW
CZ-2C R/B 3.6 03:58:51 10° NNE 04:03:47 44° E 04:08:43 10° S
STARLINK-1316 4.0 04:04:04 19° S 04:05:46 36° SE 04:08:39 10° ENE
STARLINK-1257 4.0 04:04:55 19° S 04:06:39 37° SE 04:09:33 10° ENE
IRIDIUM 103 4.4 04:02:22 15° SSW 04:06:41 57° W 04:11:49 10° N
STARLINK-1256 3.9 04:05:49 19° S 04:07:35 38° SE 04:10:30 10° ENE
STARLINK-1213 3.9 04:06:39 19° S 04:08:27 39° SE 04:11:22 10° ENE
STARLINK-1245 4.3 04:04:26 10° NW 04:08:30 58° NE 04:12:35 10° ESE
STARLINK-1263 3.8 04:07:31 19° SSW 04:09:20 40° SE 04:12:17 10° ENE
STARLINK-55 2.8 04:07:53 26° SW 04:09:32 87° NW 04:12:44 10° NE
Nadezhda 3 Rocket 4.0 04:03:16 10° N 04:09:33 78° W 04:15:52 10° S
STARLINK-1259 3.8 04:08:22 19° SSW 04:10:14 41° SE 04:13:11 10° ENE
Cosmos 1076 Rocket 3.5 04:06:40 11° S 04:10:46 81° W 04:15:08 10° N
STARLINK-1265 3.7 04:09:00 19° SSW 04:10:52 42° SE 04:13:50 10° ENE
STARLINK-1285 3.7 04:09:14 19° SSW 04:11:06 42° SE 04:14:05 10° ENE
Cosmos 2341 Rocket 4.1 04:06:29 10° S 04:12:52 88° E 04:19:17 10° N
STARLINK-1296 3.6 04:10:58 18° SSW 04:12:55 45° SE 04:15:54 10° ENE
STARLINK-1233 4.1 04:09:22 10° NW 04:13:29 65° NE 04:17:35 10° SE
Landsat 5 3.7 04:09:21 10° S 04:13:43 59° W 04:18:11 10° NNW
STARLINK-1260 3.6 04:11:49 18° SSW 04:13:49 46° SE 04:16:48 10° NE
STARLINK-1268 3.5 04:12:34 18° SSW 04:14:34 47° SE 04:17:33 10° NE
STARLINK-1318 3.5 04:12:41 18° SSW 04:14:42 47° SE 04:17:42 10° NE
Meteor 1-28 Rocket 4.4 04:13:52 19° SW 04:15:18 24° W 04:18:24 10° NW
Cosmos 836 Rocket 4.5 04:10:17 11° SSW 04:15:19 86° WNW 04:20:38 10° NNE
STARLINK-1275 3.5 04:13:33 18° SSW 04:15:36 49° SE 04:18:37 10° NE
STARLINK-1291 3.5 04:14:14 17° SSW 04:16:28 51° SE 04:19:38 10° NE
STARLINK-1309 3.4 04:14:26 18° SSW 04:16:31 50° SE 04:19:33 10° NE
STARLINK-1282 3.4 04:15:19 17° SSW 04:17:25 52° SE 04:20:28 10° NE
STARLINK-1264 3.4 04:15:39 17° SSW 04:17:55 53° SE 04:21:03 10° NE
STARLINK-1204 3.9 04:14:21 10° NW 04:18:28 73° NE 04:22:36 10° SE
STARLINK-1313 3.0 04:16:29 19° SSW 04:18:33 66° SE 04:21:39 10° NE
Cosmos 2297 Rocket 3.6 04:15:03 10° WNW 04:18:42 18° W 04:20:53 14° SW
STARLINK-1267 3.4 04:17:01 17° SSW 04:19:20 56° SE 04:22:30 10° NE
STARLINK-1279 3.0 04:17:20 18° SSW 04:19:26 68° SE 04:22:32 10° NE
STARLINK-28 3.2 04:17:31 20° WSW 04:19:32 57° NW 04:22:41 10° NE
STARLINK-1298 3.2 04:17:56 17° SSW 04:20:08 57° SE 04:23:11 10° NE
STARLINK-1272 3.3 04:18:20 16° SSW 04:20:42 59° SE 04:23:53 10° NE
STARLINK-1293 3.2 04:18:46 17° SSW 04:21:01 58° SE 04:24:04 10° NE
STARLINK-1311 2.8 04:19:08 18° SW 04:21:10 70° SE 04:24:07 10° NE
STARLINK-1207 3.2 04:19:41 16° SSW 04:22:07 61° SE 04:25:18 10° NE
Cosmos 2082 4.2 04:17:38 10° NW 04:22:45 36° WSW 04:27:50 10° S
STARLINK-1255 3.1 04:20:30 16° SSW 04:22:49 62° SE 04:25:53 10° NE
STARLINK-1238 3.7 04:19:17 10° NW 04:23:26 81° NE 04:27:33 10° SE
STARLINK-1266 3.2 04:21:06 16° SSW 04:23:35 64° SE 04:26:47 10° NE
STARLINK-1284 3.1 04:22:31 15° SSW 04:25:02 68° SE 04:28:16 10° NE
Cosmos 1892 3.0 04:21:39 11° SSW 04:25:10 49° W 04:28:54 10° N
STARLINK-1258 3.1 04:23:52 15° SW 04:26:27 71° SE 04:29:41 10° NE
STARLINK-1292 3.0 04:25:18 14° SW 04:27:57 74° SE 04:31:11 10° NE
STARLINK-1201 3.6 04:24:16 10° NW 04:28:25 89° SW 04:32:33 10° SE
Cosmos 2322 Rocket 2.4 04:23:25 10° SSW 04:29:01 73° ESE 04:34:39 10° NNE
STARLINK-1274 3.0 04:26:46 14° SW 04:29:28 78° SE 04:32:44 10° NE
CZ-4C R/B 4.2 04:27:15 11° SSW 04:29:59 24° W 04:32:59 10° NW
STARLINK-1289 3.0 04:28:14 13° SW 04:31:00 82° SE 04:34:15 10° NE
STARLINK-41 3.0 04:28:31 15° SW 04:31:01 61° NW 04:34:07 10° NE
USA 234 3.9 04:25:55 10° NNE 04:32:01 44° NW 04:38:08 10° WSW
STARLINK-1303 3.0 04:29:38 13° SW 04:32:28 85° SE 04:35:46 10° NE
STARLINK-1206 3.5 04:29:15 10° NW 04:33:23 80° SW 04:37:31 10° SE
Cosmos 1869 3.7 04:30:12 10° NNW 04:33:51 41° W 04:37:28 10° SSW
STARLINK-1312 2.9 04:31:06 13° SW 04:33:59 89° SE 04:37:14 10° NE
Cosmos 372 Rocket 4.2 04:29:28 10° NNW 04:34:24 49° WSW 04:39:22 10° S
Cosmos 2263 Rocket 3.1 04:29:20 10° N 04:34:49 54° ENE 04:40:14 10° SE
PSLV R/B 3.8 04:32:26 10° N 04:36:31 50° WNW 04:40:33 10° SSW
STARLINK-33 3.6 04:33:51 12° WSW 04:36:34 42° NW 04:39:39 10° NNE
Cosmos 2221 3.2 04:32:38 10° NNW 04:36:35 35° W 04:40:33 10° SSW
STARLINK-1205 3.5 04:34:14 10° NW 04:38:21 71° SW 04:42:27 10° SE
BREEZE-M TANK 3.4 04:39:00 10° SSW 04:42:31 33° SE 04:45:19 10° ENE
STARLINK-1218 3.6 04:39:13 10° NW 04:43:19 63° SW 04:47:23 10° SSE
STARLINK-66 4.0 04:42:09 10° WSW 04:45:05 33° NW 04:48:02 10° NNE
PAYLOAD A 4.0 04:40:47 10° N 04:45:20 53° WNW 04:49:57 10° SSW
Cosmos 1766 Rocket 4.0 04:41:30 10° S 04:45:50 65° E 04:50:09 10° NNE
Meteor 1-31 Rocket 3.8 04:42:45 10° NNE 04:46:25 47° E 04:50:05 10° S
STARLINK-1254 3.7 04:44:14 10° NW 04:48:17 55° SW 04:52:19 10° SSE
Cosmos 2151 2.9 04:44:51 10° SSW 04:49:03 73° W 04:53:19 10° N
NOSS 2-1 (C) 3.5 04:46:20 10° SW 04:49:43 43° WNW 04:52:59 10° NNE
